Location: Unspecified
(0.0000°N, 0.0000°E)
Time: 18:36:31
(UTC+00:00)

IRIDIUM 114 - Pass Details

Date: 20 November 2025
Orbit: 776 x 779 km, 86.4° (Epoch: 05 December)

Event Time Altitude Azimuth Distance (km) Brightness Sun altitude
Exits shadow 20:27:16 24° 269° (W) 1,553 6.3 -37.5°
Drops below altitude 10° 20:31:20 10° 217° (SW) 2,325 7.4 -38.4°
Sets 20:34:06 0° 203° (SSW) 3,256 8.1 -39.1°
